AirNav   Air Wisconsin pilot careers
 
 1607 users online  

0W0 Seattle Seaplanes Seaplane Base
Seattle, Washington, USA

GOING TO SEATTLE?


FAA INFORMATION EFFECTIVE 11 OCTOBER 2018

Location

FAA Identifier: 0W0
Lat/Long: 47-37-39.3530N / 122-19-54.4570W
47-37.655883N / 122-19.907617W
47.6275981 / -122.3317936
(estimated)
Elevation: 14 ft. / 4 m (estimated)
Variation: 21E (1980)
From city: 1 mile N of SEATTLE, WA
Time zone: UTC -7 (UTC -8 during Standard Time)
Zip code: 98109

Seaplane Base Operations

Seaplane Base use: Open to the public
Activation date: 04/1986
Control tower: no
ARTCC: SEATTLE CENTER
FSS: SEATTLE FLIGHT SERVICE STATION
NOTAMs facility: SEA (NOTAM-D service available)
Attendance: 0800-DUSK
Wind indicator: yes
Segmented circle: no

Seaplane Base Communications

CTAF: 122.9
WX ASOS at BFI (6 nm S): PHONE 206-763-6904
WX ASOS at RNT (9 nm SE): 126.95 (425-255-6080)
WX ASOS at SEA (11 nm S): PHONE 206-214-2592
WX ASOS at PAE (17 nm N): 128.65 (425-355-6192)
WX AWOS-3PT at PWT (19 nm SW): 121.2 (360-674-2811)

Nearby radio navigation aids

VOR radial/distance  VOR name  Freq  Var
SEAr337/11.6SEATTLE VORTAC116.8019E
PAEr167/17.7PAINE VOR/DME110.6020E
TCMr356/29.4MCCHORD VORTAC109.6015E

 
NDB name  Hdg/Dist  Freq  Var  ID
NOLLA082/2.436215EBF -... ..-.
PARKK335/5.828115EHPK .... .--. -.-
GRAYE005/30.721616EGRF --. .-. ..-.
MASON COUNTY034/38.234819EMNC -- -. -.-.
LACOMAS358/38.332816ELAC .-.. .- -.-.

Seaplane Base Services

Airframe service: MINOR
Powerplant service: MINOR

Runway Information

Runway 18W/36W

Dimensions: 9500 x 300 ft. / 2896 x 91 m
Surface: water, in excellent condition
RUNWAY 18W  RUNWAY 36W
Traffic pattern: leftleft

Seaplane Base Ownership and Management from official FAA records

Ownership: Privately-owned
Owner: SEATTLE SEAPLANES
1325 FAIRVIEW EAST
SEATTLE, WA 98102
Phone 206-329-9638
Manager: JIM CHRYSLER
1325 FAIRVIEW EAST
SEATTLE, WA 98102
Phone 206-329-9638

Seaplane Base Operational Statistics

Aircraft based on the field: 4
Single engine airplanes: 4
    
Aircraft operations: avg 50/week *
96% air taxi
2% transient general aviation
2% local general aviation
* for 12-month period ending 31 December 2016

Additional Remarks

SMALL WATERCRAFT ACTVT ON LAKE.
FOR CD CTC SEA APCH AT 206-214-4722.

Instrument Procedures

There are no published instrument procedures at 0W0.

Some nearby airports with instrument procedures:

KBFI - Boeing Field/King County International Airport (6 nm S)
KRNT - Renton Municipal Airport (9 nm SE)
KSEA - Seattle-Tacoma International Airport (11 nm S)
KPAE - Snohomish County Airport (Paine Field) (17 nm N)
S50 - Auburn Municipal Airport (18 nm S)
S43 - Harvey Field Airport (19 nm NE)
KPWT - Bremerton National Airport (19 nm SW)
 
Loc | Ops | Rwys | IFR | FBO | Links
Com | Nav | Svcs | Stats | Notes


 
Area around 0W0 (Seattle Seaplanes Seaplane Base)
 
Road maps at: MapQuest Bing Google
 
Aerial photo
WARNING: Photo may not be current or correct
Aerial photo of 0W0 (Seattle Seaplanes Seaplane Base)
Photo taken 24-Jan-2007

Do you have a better or more recent aerial photo of Seattle Seaplanes Seaplane Base that you would like to share? If so, please send us your photo.

 
Sectional chart

 
Airport distance calculator
Flying to Seattle Seaplanes Seaplane Base? Find the distance to fly.

From to 0W0

Sunrise and sunset
Times for 22-Oct-2018
 Local
(UTC-7)
 Zulu
(UTC)
Morning civil twilight07:0814:08
Sunrise07:4014:40
Sunset18:0801:08
Evening civil twilight18:4001:40

Current date and time
Zulu (UTC)  22-Oct-2018 15:44:56
Local (UTC-7)  22-Oct-2018 08:44:56
 
METAR
KBFI 
5nm S 
221453Z AUTO 16003KT 1/4SM FG VV002 07/07 A2999 RMK AO2 SLP156 T00720067 55001
KRNT 
9nm SE 
221453Z 14003KT 1/4SM VV002 06/06 A2999 RMK AO2 SLP162 T00610056 55000
KSEA 
11nm S 
221453Z 00000KT 1/4SM FG VV001 07/06 A2998 RMK AO2 SLP161 T00720061 55000 RVRNO
KPAE 
17nm N 
221453Z 00000KT M1/4SM R16R/0600V1000FT FG VV001 06/06 A2998 RMK AO2 SLP155 T00560056 56003
KPWT 
19nm SW 
221456Z AUTO 00000KT M1/4SM FG VV002 02/02 A2999 RMK AO2 RAB30E50 SLP175 P0000 60000 T00170017 53002 FZRANO
TAF
KBFI 
5nm S 
221131Z 2212/2312 15003KT 1/4SM FG VV002 FM221800 00000KT 1SM BR OVC003 FM222000 31003KT 3SM BR BKN006 FM222200 31003KT 6SM BR SCT010 FM230000 00000KT P6SM SKC FM230600 00000KT 4SM BR SCT003 FM231000 14003KT 1SM BR BKN002
KSEA 
11nm S 
221131Z 2212/2318 VRB03KT 1/4SM FG VV001 FM221900 VRB03KT 2SM BR BKN005 FM222100 33003KT 5SM HZ SCT008 FM230000 03004KT P6SM SKC FM230700 04004KT 3SM BR SCT003 FM231000 VRB03KT 1SM BR BKN002 FM231400 16004KT 6SM BR SCT002 BKN005
KPAE 
17nm N 
221131Z 2212/2312 00000KT 1/4SM FG VV001 FM222000 VRB03KT 3SM BR BKN003 FM222200 33003KT P6SM FEW006 FM230100 VRB03KT P6SM SKC FM230800 VRB03KT 2SM BR SCT003 FM231100 13003KT 3/4SM BR BKN001
KPWT 
19nm SW 
221131Z 2212/2312 00000KT 1/4SM FG VV001 FM221800 03003KT 1SM BR OVC003 FM222000 03003KT P6SM BKN007 FM222200 03003KT P6SM SKC FM230400 03003KT 2SM BR SCT001 FM230700 VRB03KT 1/4SM FG VV001
NOTAMs
Click for the latest NOTAMs
NOTAMs are issued by the DoD/FAA and will open in a separate window not controlled by AirNav.

 

 
 

Would you like to see your business listed on this page?

 If your business provides an interesting product or service to pilots, flight crews, aircraft, or users of the Seattle Seaplanes Seaplane Base, you should consider listing it here.  To start the listing process, click on the button below
 
Add a business
 

Other Pages about Seattle Seaplanes Seaplane Base

Update a link
 
Copyright © AirNav, LLC. All rights reserved. Privacy Policy  Contact